CAPE
1 0 0 0 0 0 0 0 0 0 2 0 1 3 5 5 7 0 0 0 0 0 1 0 0 0 0 0 0 0 0 0 0 0 0 0 0 0 0 0 0 0 0 0 0 0 0 0 0 0 0 0 0 0
0 0 0 0 0 0 0 0 0 0 1 7 2 5 6 9 5 4 1 3 2 0 0 0 0 0 0 0 0 0 0 0 0 0 0 0 0 0 0 0 0 0 0 0 0 0 0 0 0 0 0 0 0 0
0 0 0 0 0 0 0 0 0 0 3 1 4 7 8 9 5 0 1 2 0 0 0 0 0 0 0 0 0 0 0 0 0 0 0 0 0 0 0 0 0 0 0 0 0 0 0 0 0 0 0 0 0 0
0 0 0 0 0 0 0 2 1 2 0 3 7 7 9 7 6 0 1 1 0 0 0 0 0 0 0 0 0 0 0 0 0 0 0 0 0 0 0 0 0 0 0 0 0 0 0 0 0 0 0 0 0 0
0 0 0 0 0 0 1 3 6 1 1 4 7 5 12 8 2 0 0 0 0 0 0 0 0 0 0 0 0 0 0 0 0 0 0 0 0 0 0 0 0 0 0 0 0 0 0 0 0 0 0 0 0 0
1 0 0 0 0 1 1 6 8 2 3 5 2 16 6 1 0 0 0 0 0 0 0 0 0 0 0 0 0 0 0 0 0 0 0 0 0 0 0 0 0 0 0 0 0 0 0 0 0 0 0 0 0 0
1 1 1 1 1 6 8 2 3 4 3 7 4 5 3 3 0 0 0 0 0 0 0 0 0 0 0 0 0 0 0 0 0 0 0 0 0 0 0 0 0 0 0 0 0 0 0 0 0 0 0 0 0 0
2 3 4 5 6 11 4 3 4 4 6 7 5 7 4 1 0 0 0 0 0 0 0 0 0 0 0 0 0 0 0 0 0 0 0 0 0 0 0 0 0 0 0 0 0 0 0 0 0 0 0 0 0 0
3 12 7 14 10 2 4 3 5 4 4 9 6 1 0 0 0 0 0 0 0 0 0 0 0 0 0 0 0 0 0 0 0 0 0 0 0 0 0 0 0 0 0 0 0 0 0 0 0 0 0 0 0 0
1 21 1 3 3 4 6 4 5 7 3 0 0 0 1 1 1 0 0 0 0 0 0 0 0 0 0 0 0 0 0 0 0 0 0 0 0 0 0 0 0 0 0 0 0 0 0 0 0 0 0 0 0 0
2 2 3 7 7 4 5 7 8 0 0 0 0 0 0 0 0 0 0 0 0 0 0 0 0 0 0 0 0 0 0 0 0 0 0 0 0 0 0 0 0 0 0 0 0 0 0 1 0 0 0 0 1 1
5 5 4 4 6 11 11 6 0 0 0 0 0 0 0 0 0 0 0 0 0 0 0 0 0 0 0 0 0 0 0 0 0 0 0 0 0 0 0 0 0 0 0 0 0 0 0 0 0 0 0 0 0 0
8 11 13 12 11 16 6 0 0 0 0 0 0 0 0 0 0 0 0 0 0 0 0 0 0 0 0 0 0 0 0 0 0 0 0 0 0 0 0 0 0 0 0 0 0 0 0 0 0 0 0 0 0 0
8 8 9 9 4 0 4 0 0 0 0 0 0 0 0 0 0 0 0 0 0 0 0 0 0 0 0 0 0 0 0 0 0 0 0 0 0 0 0 0 0 0 0 0 0 0 0 0 0 0 0 0 0 0
9 9 10 4 0 0 0 0 0 0 0 0 0 0 0 0 0 0 0 0 0 0 0 0 0 0 0 0 0 0 0 0 0 0 0 0 0 0 0 0 0 0 0 0 0 0 0 0 0 0 0 0 0 0
8 6 0 1 0 0 0 0 0 0 0 0 0 0 0 0 0 0 0 0 0 0 0 0 0 0 0 0 0 0 0 0 0 0 0 0 0 0 0 0 0 0 0 0 0 0 0 0 0 0 0 0 0 0
0 1 3 0 0 0 0 0 0 0 0 0 0 0 0 0 0 0 0 0 0 0 0 0 0 0 0 0 0 0 0 0 0 0 0 0 0 0 0 0 0 0 0 0 0 0 0 0 0 0 0 0 0 0
2 0 0 0 0 0 0 0 0 0 0 0 0 0 0 0 0 0 0 0 0 0 0 0 0 0 0 0 0 0 0 0 0 0 0 0 0 0 0 0 0 0 0 0 0 0 0 0 0 0 0 0 0 0
0 0 0 0 0 0 0 0 0 0 0 0 0 0 0 0 0 0 0 0 0 0 0 0 0 0 0 0 0 0 0 0 0 0 0 0 0 0 0 0 0 0 0 0 0 0 0 0 0 0 0 0 0 0
0 0 0 0 0 0 0 0 0 0 0 0 0 0 0 0 0 0 0 0 0 0 0 0 0 0 0 0 0 0 0 0 0 0 0 0 0 0 0 0 0 0 0 0 0 0 0 0 0 0 0 0 0 0
0 0 0 0 0 0 0 0 0 0 0 0 0 0 0 0 0 0 0 0 0 0 0 0 0 0 0 0 0 0 0 0 0 0 0 0 0 0 0 0 0 0 0 0 0 0 0 0 0 0 0 0 0 0
0 0 0 0 0 0 0 0 0 0 0 0 0 0 0 0 0 0 0 0 0 0 0 0 0 0 0 0 0 0 0 0 0 0 0 0 0 0 0 0 0 0 0 0 0 0 0 0 0 0 0 0 0 0
0 0 0 0 0 0 0 0 0 0 0 0 0 0 0 0 0 0 0 0 0 0 0 0 0 0 0 0 0 0 0 0 0 0 0 0 0 0 0 0 0 0 0 0 0 0 0 0 0 0 0 0 0 0
0 0 0 0 0 0 0 0 0 0 0 0 0 0 0 0 0 0 0 0 0 0 0 0 0 0 0 0 0 0 0 0 0 0 0 0 0 0 0 0 0 0 0 0 0 0 0 0 0 0 0 0 0 0
0 0 0 0 0 0 0 0 0 0 0 0 0 0 0 0 0 0 0 0 0 0 0 0 0 0 0 0 0 0 0 0 0 0 0 0 0 0 0 0 0 0 0 0 0 0 0 0 0 0 0 0 0 0
0 0 0 0 0 0 0 0 0 0 0 0 0 0 0 0 0 0 0 0 0 0 0 0 0 0 0 0 0 0 0 0 0 0 0 0 0 0 0 0 0 0 0 0 0 0 0 0 0 0 0 0 0 0
0 0 0 0 0 0 0 0 0 0 0 0 0 0 0 0 0 0 0 0 0 0 0 0 0 0 0 0 0 0 0 0 0 0 0 0 0 0 0 0 0 0 0 0 0 0 0 0 0 0 0 0 0 0
0 0 0 0 0 0 0 0 0 0 0 0 0 0 0 0 0 0 0 0 0 0 0 0 0 0 0 0 0 0 0 0 0 0 0 0 0 0 0 0 0 0 0 0 0 0 0 0 0 0 0 0 0 0
0 0 0 0 0 0 0 0 0 0 0 0 0 0 0 0 0 0 0 0 0 0 0 0 0 0 0 0 0 0 0 0 0 0 0 0 0 0 0 0 0 0 0 0 0 0 0 0 0 0 0 0 0 0
0 0 0 0 0 0 0 0 0 0 0 0 0 0 0 0 0 0 0 0 0 0 0 0 0 0 0 0 0 0 0 0 0 0 0 0 0 0 0 0 0 0 0 0 0 0 0 0 0 0 0 0 0 0
0 0 0 0 0 0 0 0 0 0 0 0 0 0 0 0 0 0 0 0 0 0 0 0 0 0 0 0 0 0 0 0 0 0 0 0 0 0 0 0 0 0 0 0 0 0 0 0 0 0 0 0 0 0
0 0 0 0 0 0 0 0 0 0 0 0 0 0 0 0 0 0 0 0 0 0 0 0 0 0 0 0 0 0 0 0 0 0 0 0 0 0 0 0 0 0 0 0 0 0 0 0 0 0 0 0 0 0
0 0 0 0 0 0 0 0 0 0 0 0 0 0 0 0 0 0 0 0 0 0 0 0 0 0 0 0 0 0 0 0 0 0 0 0 0 0 0 0 0 0 0 0 0 0 0 0 0 0 0 0 0 0
CIN
0 0 0 0 0 0 0 0 0 0 -1 0 0 0 0 0 0 -1 0 0 0 0 0 0 0 0 0 0 0 0 0 0 0 0 0 0 0 0 0 0 0 0 0 0 0 0 0 0 0 0 0 0 0 0
0 0 0 0 0 0 0 0 0 0 -1 -4 0 0 0 0 -1 -2 0 -3 -2 0 0 0 0 0 0 0 0 0 0 0 0 0 0 0 0 0 0 0 0 0 0 0 0 0 0 0 0 0 0 0 0 0
0 0 0 0 0 0 0 0 0 0 -1 -5 0 0 0 0 0 0 0 0 0 0 0 0 0 0 0 0 0 0 0 0 0 0 0 0 0 0 0 0 0 0 0 0 0 0 0 0 0 0 0 0 0 0
0 0 0 0 0 0 0 0 0 0 -1 0 0 0 0 0 0 0 0 0 0 0 0 0 0 0 0 0 0 0 0 0 0 0 0 0 0 0 0 0 0 0 0 0 0 0 0 0 0 0 0 0 0 0
0 0 0 0 0 0 0 0 -1 -3 0 0 0 0 0 0 0 0 0 0 0 0 0 0 0 0 0 0 0 0 0 0 0 0 0 0 0 0 0 0 0 0 0 0 0 0 0 0 0 0 0 0 0 0
0 0 0 0 0 0 0 0 -5 0 0 0 0 0 0 0 0 0 0 0 0 0 0 0 0 0 0 0 0 0 0 0 0 0 0 0 0 0 0 0 0 0 0 0 0 0 0 0 0 0 0 0 0 0
0 0 0 0 -3 -3 0 -4 0 0 0 0 0 0 0 0 0 0 0 0 0 0 0 0 0 0 0 0 0 0 0 0 0 0 0 0 0 0 0 0 0 0 0 0 0 0 0 0 0 0 0 0 0 0
-7 -8 -7 -4 -3 -1 -11 0 0 0 0 0 0 0 0 0 0 0 0 0 0 0 0 0 0 0 0 0 0 0 0 0 0 0 0 0 0 0 0 0 0 0 0 0 0 0 0 0 0 0 0 0 0 0
-7 -1 -1 -2 -2 0 0 0 0 0 0 0 0 0 0 0 0 0 0 0 0 0 0 0 0 0 0 0 0 0 0 0 0 0 0 0 0 0 0 0 0 0 0 0 0 0 0 0 0 0 0 0 0 0
-4 0 -1 0 0 0 0 0 0 0 0 0 0 0 0 -1 0 0 0 0 0 0 0 0 0 0 0 0 0 0 0 0 0 0 0 0 0 0 0 0 0 0 0 0 0 0 0 0 0 0 0 0 0 0
0 0 0 0 0 0 0 0 0 0 0 0 0 0 0 0 0 0 0 0 0 0 0 0 0 0 0 0 0 0 0 0 0 0 0 0 0 0 0 0 0 0 0 0 0 0 0 0 0 0 0 0 0 0
0 0 0 0 0 0 0 0 0 0 0 0 0 0 0 0 0 0 0 0 0 0 0 0 0 0 0 0 0 0 0 0 0 0 0 0 0 0 0 0 0 0 0 0 0 0 0 0 0 0 0 0 0 0
0 0 0 0 0 0 0 0 0 0 0 0 0 0 0 0 0 0 0 0 0 0 0 0 0 0 0 0 0 0 0 0 0 0 0 0 0 0 0 0 0 0 0 0 0 0 0 0 0 0 0 0 0 0
0 0 0 0 0 -1 0 0 0 0 0 0 0 0 0 0 0 0 0 0 0 0 0 0 0 0 0 0 0 0 0 0 0 0 0 0 0 0 0 0 0 0 0 0 0 0 0 0 0 0 0 0 0 0
0 0 0 0 -1 -1 0 0 0 0 0 0 0 0 0 0 0 0 0 0 0 0 0 0 0 0 0 0 0 0 0 0 0 0 0 0 0 0 0 0 0 0 0 0 0 0 0 0 0 0 0 0 0 0
0 0 0 -5 0 0 0 0 0 0 0 0 0 0 0 0 0 0 0 0 0 0 0 0 0 0 0 0 0 0 0 0 0 0 0 0 0 0 0 0 0 0 0 0 0 0 0 0 0 0 0 0 0 0
0 -1 -3 0 0 0 0 0 0 0 0 0 0 0 0 0 0 0 0 0 0 0 0 0 0 0 0 0 0 0 0 0 0 0 0 0 0 0 0 0 0 0 0 0 0 0 0 0 0 0 0 0 0 0
0 0 0 0 0 0 0 0 0 0 0 0 0 0 0 0 0 0 0 0 0 0 0 0 0 0 0 0 0 0 0 0 0 0 0 0 0 0 0 0 0 0 0 0 0 0 0 0 0 0 0 0 0 0
0 0 0 0 0 0 0 0 0 0 0 0 0 0 0 0 0 0 0 0 0 0 0 0 0 0 0 0 0 0 0 0 0 0 0 0 0 0 0 0 0 0 0 0 0 0 0 0 0 0 0 0 0 0
0 0 0 0 0 0 0 0 0 0 0 0 0 0 0 0 0 0 0 0 0 0 0 0 0 0 0 0 0 0 0 0 0 0 0 0 0 0 0 0 0 0 0 0 0 0 0 0 0 0 0 0 0 0
0 0 0 0 0 0 0 0 0 0 0 0 0 0 0 0 0 0 0 0 0 0 0 0 0 0 0 0 0 0 0 0 0 0 0 0 0 0 0 0 0 0 0 0 0 0 0 0 0 0 0 0 0 0
0 0 0 0 0 0 0 0 0 0 0 0 0 0 0 0 0 0 0 0 0 0 0 0 0 0 0 0 0 0 0 0 0 0 0 0 0 0 0 0 0 0 0 0 0 0 0 0 0 0 0 0 0 0
0 0 0 0 0 0 0 0 0 0 0 0 0 0 0 0 0 0 0 0 0 0 0 0 0 0 0 0 0 0 0 0 0 0 0 0 0 0 0 0 0 0 0 0 0 0 0 0 0 0 0 0 0 0
0 0 0 0 0 0 0 0 0 0 0 0 0 0 0 0 0 0 0 0 0 0 0 0 0 0 0 0 0 0 0 0 0 0 0 0 0 0 0 0 0 0 0 0 0 0 0 0 0 0 0 0 0 0
0 0 0 0 0 0 0 0 0 0 0 0 0 0 0 0 0 0 0 0 0 0 0 0 0 0 0 0 0 0 0 0 0 0 0 0 0 0 0 0 0 0 0 0 0 0 0 0 0 0 0 0 0 0
0 0 0 0 0 0 0 0 0 0 0 0 0 0 0 0 0 0 0 0 0 0 0 0 0 0 0 0 0 0 0 0 0 0 0 0 0 0 0 0 0 0 0 0 0 0 0 0 0 0 0 0 0 0
0 0 0 0 0 0 0 0 0 0 0 0 0 0 0 0 0 0 0 0 0 0 0 0 0 0 0 0 0 0 0 0 0 0 0 0 0 0 0 0 0 0 0 0 0 0 0 0 0 0 0 0 0 0
0 0 0 0 0 0 0 0 0 0 0 0 0 0 0 0 0 0 0 0 0 0 0 0 0 0 0 0 0 0 0 0 0 0 0 0 0 0 0 0 0 0 0 0 0 0 0 0 0 0 0 0 0 0
0 0 0 0 0 0 0 0 0 0 0 0 0 0 0 0 0 0 0 0 0 0 0 0 0 0 0 0 0 0 0 0 0 0 0 0 0 0 0 0 0 0 0 0 0 0 0 0 0 0 0 0 0 0
0 0 0 0 0 0 0 0 0 0 0 0 0 0 0 0 0 0 0 0 0 0 0 0 0 0 0 0 0 0 0 0 0 0 0 0 0 0 0 0 0 0 0 0 0 0 0 0 0 0 0 0 0 0
0 0 0 0 0 0 0 0 0 0 0 0 0 0 0 0 0 0 0 0 0 0 0 0 0 0 0 0 0 0 0 0 0 0 0 0 0 0 0 0 0 0 0 0 0 0 0 0 0 0 0 0 0 0
0 0 0 0 0 0 0 0 0 0 0 0 0 0 0 0 0 0 0 0 0 0 0 0 0 0 0 0 0 0 0 0 0 0 0 0 0 0 0 0 0 0 0 0 0 0 0 0 0 0 0 0 0 0
0 0 0 0 0 0 0 0 0 0 0 0 0 0 0 0 0 0 0 0 0 0 0 0 0 0 0 0 0 0 0 0 0 0 0 0 0 0 0 0 0 0 0 0 0 0 0 0 0 0 0 0 0 0
Wind_Speed
46 47 46 45 41 41 36 39 39 39 36 28 24 21 19 16 13 17 19 19 23 28 29 25 26 27 26 26 28 22 25 22 21 22 23 20 22 21 24 22 23 25 25 24 23 26 30 29 26 29 26 29 32 35
42 39 41 41 40 41 33 31 37 36 30 32 19 17 18 17 17 18 25 21 20 27 27 23 24 22 21 22 20 20 23 21 19 21 21 21 21 21 22 29 18 24 18 23 20 23 22 29 28 24 26 32 35 39
43 43 42 39 34 33 32 30 30 33 28 18 16 16 14 15 17 22 22 20 23 27 28 27 26 21 17 19 19 24 21 16 16 14 15 19 23 20 25 23 20 20 21 23 29 26 31 34 26 26 30 38 40 35
46 45 42 41 39 36 34 33 30 25 18 14 14 14 13 12 15 18 23 21 22 25 32 30 19 19 19 18 15 12 12 12 13 14 17 19 22 15 20 19 20 21 25 26 27 29 32 21 29 36 38 38 35 38
49 47 42 40 38 35 33 29 26 18 15 14 13 12 11 9 11 15 17 17 16 24 29 28 20 16 16 17 16 12 10 12 14 16 18 20 16 17 18 21 22 22 23 25 28 28 28 30 34 37 37 40 43 42
46 41 38 37 35 32 28 26 19 15 14 12 11 10 8 7 7 14 22 19 15 16 23 29 24 21 19 18 15 13 11 12 14 16 16 15 15 17 20 21 20 21 22 22 25 28 29 30 32 32 43 44 43 41
40 35 31 29 29 26 24 17 14 14 12 10 9 7 5 4 12 19 21 19 10 15 22 27 26 20 17 14 15 13 13 14 15 15 16 15 17 17 20 23 20 23 24 26 26 32 33 32 38 40 40 40 41 31
33 31 29 27 23 21 15 15 14 13 12 10 6 5 1 3 10 17 17 12 11 15 19 24 24 20 17 18 18 14 15 16 17 16 15 17 17 18 21 19 22 25 29 26 29 31 30 33 37 40 39 41 44 42
28 25 22 21 15 15 16 17 16 15 13 11 9 5 7 15 17 14 11 13 14 16 22 22 23 24 16 17 16 16 17 20 17 16 16 15 18 20 19 22 25 26 27 28 31 33 33 37 39 40 42 43 43 42
18 13 9 13 17 19 19 19 18 16 16 12 4 14 18 15 5 10 17 19 20 22 20 23 19 21 17 17 18 17 17 18 19 17 14 17 19 16 19 22 23 25 27 29 34 38 40 40 41 46 44 42 40 41
5 10 15 18 19 20 21 21 20 16 6 10 15 17 9 7 13 17 20 21 21 22 21 19 18 17 16 18 18 17 17 17 20 17 17 19 20 19 20 22 23 25 27 30 30 32 33 34 40 46 45 43 39 38
13 16 19 21 22 23 22 20 12 6 9 6 2 5 10 16 18 19 20 21 21 22 18 17 15 15 15 14 15 16 16 16 19 17 19 21 19 18 21 23 24 26 29 31 32 33 34 36 41 41 41 40 39 40
22 24 25 25 26 25 20 13 14 17 10 5 10 13 15 17 19 20 20 20 20 16 14 12 13 13 13 14 15 15 17 17 17 19 21 19 18 20 21 23 25 27 29 31 32 33 34 39 39 39 39 39 37 34
24 23 24 22 19 19 17 16 7 3 9 12 14 16 18 18 18 18 17 16 15 13 9 9 12 13 13 14 15 16 16 17 20 22 21 17 19 21 22 24 26 29 31 31 32 32 35 37 38 37 38 37 34 33
25 22 21 18 15 12 7 3 4 9 12 13 15 17 17 15 15 13 12 11 10 9 9 10 13 14 15 15 16 16 18 20 20 21 17 17 19 22 25 27 28 29 30 29 30 32 34 35 36 36 36 35 33 33
22 19 16 13 10 5 2 4 9 12 14 14 15 15 11 10 11 10 9 8 10 10 12 14 14 15 16 16 17 17 19 21 20 16 17 20 23 24 26 27 27 27 27 27 29 31 31 33 32 25 34 35 33 32
10 2 12 11 10 7 6 6 11 13 13 14 13 10 10 8 7 9 10 10 11 13 14 15 15 16 15 18 19 17 20 17 17 19 21 22 25 25 25 25 25 25 25 26 28 28 29 29 25 31 34 29 28 29
17 16 14 9 7 5 8 12 11 12 11 10 9 10 10 9 8 10 11 13 14 14 14 16 15 17 19 20 20 16 17 18 20 22 25 25 25 22 22 23 23 24 24 25 25 26 26 26 27 29 20 16 16 28
15 12 7 5 5 7 10 11 12 10 9 9 8 9 10 11 12 12 13 15 15 14 14 16 17 18 17 16 18 19 21 23 25 27 27 24 20 20 20 20 21 23 23 23 23 23 24 23 24 26 23 25 29 30
12 7 6 7 8 10 10 11 11 10 9 10 11 11 12 13 13 14 16 17 16 16 17 17 17 17 18 18 19 22 24 24 25 25 24 19 18 17 17 19 21 21 21 21 21 21 21 21 22 24 23 21 20 26
6 6 7 8 9 10 10 11 12 11 11 11 12 13 14 14 15 16 17 20 18 18 18 17 17 18 19 20 21 22 23 22 21 19 20 19 16 16 16 18 19 20 19 19 20 20 21 20 20 23 23 23 16 18
4 6 7 10 10 11 12 13 12 13 14 12 14 16 16 17 18 18 20 18 18 18 17 17 18 19 20 20 20 20 21 20 18 17 18 16 15 16 17 19 19 19 19 19 19 20 20 20 20 21 20 18 18 20
5 8 9 11 11 13 12 14 14 15 15 15 16 17 18 19 18 19 19 18 17 17 17 18 18 18 17 18 18 19 19 18 17 17 17 16 16 16 17 18 18 18 18 19 19 19 20 20 20 19 18 17 17 18
8 10 11 12 13 12 13 14 16 16 17 18 19 20 20 19 21 20 20 19 18 17 18 18 18 17 16 16 17 18 19 17 17 17 18 17 16 17 18 17 17 17 18 18 18 18 19 19 19 18 18 18 18 17
10 13 13 12 13 13 14 16 18 19 20 20 20 21 20 20 21 22 21 19 17 17 17 18 17 17 16 15 16 16 18 18 17 17 18 18 17 17 17 17 17 17 17 17 17 18 18 18 19 18 18 18 18 18
12 15 14 13 14 15 16 18 19 19 20 21 21 20 20 21 22 21 19 18 17 17 17 17 17 16 16 17 17 17 18 17 16 16 17 17 16 15 16 16 16 16 17 17 17 18 18 18 18 19 19 19 19 19
13 14 13 14 14 15 17 18 18 20 22 22 20 20 20 21 20 18 16 16 17 17 17 17 16 16 16 18 16 16 17 16 15 14 14 15 15 15 15 15 16 17 18 17 18 18 18 18 18 19 19 19 19 20
13 12 11 13 16 18 18 19 20 21 20 18 18 19 19 18 19 16 16 17 16 18 18 17 17 17 17 17 16 15 15 14 14 14 15 15 15 16 16 16 17 18 18 17 18 18 18 18 19 19 19 20 20 21
14 12 13 15 17 19 19 19 19 18 17 16 18 18 16 15 15 15 16 16 16 16 17 16 16 17 16 16 16 15 14 12 12 15 16 16 16 16 17 17 17 17 18 17 17 18 18 18 19 19 20 21 21 22
13 14 16 17 18 19 18 17 18 16 16 16 15 15 15 16 16 15 16 15 13 12 12 12 12 14 15 16 15 14 13 12 13 14 14 15 15 16 17 17 17 18 18 18 18 18 18 19 19 20 21 22 23 23
13 15 16 17 18 18 17 17 17 17 17 16 17 16 16 18 17 16 16 16 15 15 14 13 12 12 11 12 12 12 12 13 12 12 12 13 14 15 16 17 17 18 18 18 19 19 20 20 21 22 23 24 25 25
15 16 17 19 18 17 18 18 18 17 18 17 17 17 17 16 15 16 17 17 15 16 16 15 13 13 11 11 10 12 13 12 13 14 14 13 14 15 16 17 17 18 19 19 20 21 21 22 23 24 25 26 26 27
16 17 17 17 18 17 18 18 19 19 18 17 16 16 15 15 14 16 16 16 15 15 15 15 14 13 13 10 10 11 10 12 16 18 12 10 12 14 16 17 18 19 20 21 22 22 23 24 25 25 26 27 28 29
Wind_Direction
270 268 269 269 274 275 278 275 275 277 277 276 267 256 258 260 268 284 297 300 301 303 306 305 315 315 315 314 314 326 327 328 330 326 329 333 331 335 334 337 337 334 334 334 338 334 334 349 347 341 337 339 336 333
275 276 276 275 276 274 281 281 278 280 281 278 257 246 254 259 268 287 292 301 308 305 312 313 313 320 320 319 318 320 320 329 331 330 331 337 334 335 335 329 344 333 336 337 335 336 341 341 338 339 339 338 335 330
276 276 276 276 275 276 278 280 281 280 279 264 247 245 249 264 269 288 295 297 304 300 307 313 310 316 327 317 323 314 320 332 336 344 339 335 327 334 329 331 339 339 337 331 331 337 334 334 339 345 340 332 330 331
276 274 274 274 273 275 276 276 278 276 264 244 240 240 245 256 276 289 293 294 298 304 299 304 326 322 328 327 330 337 340 347 343 338 331 329 328 340 334 338 335 334 333 332 329 332 338 351 344 337 334 333 333 329
275 273 271 271 271 272 274 273 272 257 241 232 231 232 244 255 286 301 305 301 309 302 301 304 314 323 332 337 335 342 341 341 336 331 329 326 336 337 337 334 331 335 335 334 333 338 336 332 335 335 334 332 330 328
275 271 269 270 269 269 267 267 250 232 224 221 227 221 222 262 283 304 301 300 298 316 310 303 315 317 321 327 330 334 337 335 335 334 333 337 339 337 335 335 340 345 345 344 338 337 335 332 335 339 333 331 330 329
275 272 268 265 266 264 262 242 221 209 209 207 200 206 213 273 302 302 301 310 300 314 310 306 310 323 328 335 335 334 338 337 338 336 332 333 333 334 333 330 340 342 345 342 342 341 339 342 337 335 335 334 332 334
273 270 268 264 259 257 225 200 190 183 176 173 171 156 177 333 321 315 326 332 324 315 316 307 309 315 325 320 320 335 329 331 332 331 336 332 335 333 332 340 344 345 344 345 344 343 340 338 339 339 339 336 332 333
274 270 265 257 236 190 175 167 164 155 149 141 130 108 321 304 298 305 337 340 333 317 308 309 305 307 326 319 324 327 327 321 331 325 330 334 331 329 338 342 345 347 347 344 344 344 345 344 343 343 340 336 333 306
274 258 216 178 168 163 159 154 149 147 142 137 288 294 289 299 343 326 313 310 311 309 310 305 312 307 317 317 319 324 328 323 322 328 337 328 330 343 349 351 351 351 349 348 345 345 345 346 346 339 336 337 339 337
123 139 145 146 145 144 146 145 142 143 163 272 283 290 305 323 311 311 305 304 307 305 309 307 305 307 319 312 315 325 325 329 323 329 326 330 332 340 351 352 353 353 352 350 350 350 351 351 346 327 329 335 344 347
118 121 127 127 129 132 133 132 138 242 273 276 340 352 313 307 305 302 300 304 304 304 313 313 313 317 322 329 323 326 324 330 324 333 330 329 338 354 354 353 353 353 351 351 352 353 355 352 341 343 337 343 347 330
106 112 111 111 113 113 114 112 107 106 93 344 315 304 304 303 298 297 296 302 304 311 317 321 321 328 332 331 329 328 324 323 332 327 329 337 352 355 354 354 352 352 351 352 354 356 354 341 350 348 347 346 326 321
105 111 109 112 110 107 107 106 99 317 315 311 307 296 299 302 300 302 304 309 318 322 331 333 330 329 333 330 332 326 331 332 325 322 328 343 353 355 353 352 350 348 349 351 354 355 346 345 348 353 346 338 328 327
106 106 105 106 107 106 105 93 335 321 318 314 311 304 302 311 316 318 323 329 334 343 339 338 334 334 330 332 334 333 328 324 327 329 344 353 352 351 349 347 346 346 349 353 354 348 341 348 348 344 343 339 335 337
102 99 100 98 93 87 60 326 308 314 317 317 314 310 322 328 325 340 356 351 341 347 345 339 333 332 328 331 328 324 326 323 332 345 349 347 345 343 344 345 347 350 352 353 348 339 344 345 331 11 4 350 344 342
87 95 96 85 74 49 11 335 325 325 320 314 317 337 340 351 355 342 339 341 341 335 331 333 330 328 335 328 325 333 327 341 345 342 341 340 338 340 342 345 350 352 352 348 333 335 339 331 317 347 358 334 335 341
91 94 90 77 59 7 336 334 339 333 328 335 335 341 344 340 1 344 346 340 335 337 337 330 341 327 325 325 328 340 342 339 337 336 333 333 334 339 343 346 350 351 347 331 325 329 332 329 333 344 317 309 314 345
88 78 61 31 354 335 314 319 319 328 325 324 327 327 340 347 346 351 350 348 350 354 359 347 340 334 337 341 339 339 336 333 330 329 330 334 339 340 343 347 347 343 330 316 319 322 326 324 330 338 327 335 354 356
76 56 30 358 319 325 326 319 298 333 326 317 324 331 339 343 345 345 343 341 346 347 344 342 342 344 343 344 342 336 334 334 333 332 335 341 343 344 345 344 340 329 309 311 315 319 320 317 324 335 331 328 329 349
50 276 283 275 290 321 338 319 333 337 343 344 335 344 348 348 347 346 346 339 346 343 341 346 346 346 344 341 341 340 339 342 342 343 342 345 350 349 345 341 330 302 301 306 308 312 320 313 312 328 334 335 316 325
290 285 295 303 331 327 343 326 354 354 353 359 350 343 346 344 344 346 344 344 342 346 348 348 346 345 344 346 349 352 352 353 355 355 351 351 348 346 341 325 297 295 300 303 303 308 311 309 311 323 326 318 326 336
302 295 306 311 334 335 344 337 349 342 351 349 351 347 346 348 352 353 347 350 349 350 348 347 346 348 350 354 357 357 358 0 1 357 350 349 349 348 326 301 303 301 298 300 304 305 311 313 314 315 316 314 321 328
305 313 321 327 333 349 335 338 349 352 353 349 347 344 348 351 352 350 344 346 351 352 349 348 350 351 353 354 354 356 355 357 356 346 338 338 340 326 304 305 308 308 304 299 305 309 315 318 318 317 318 324 325 326
310 309 325 337 326 339 340 342 343 348 345 349 348 346 350 352 347 343 343 350 356 357 355 355 355 354 354 355 355 354 349 349 346 338 334 331 327 318 304 302 303 315 310 306 309 310 316 320 326 327 325 329 332 334
315 313 327 332 333 337 341 341 345 349 352 349 350 353 353 349 344 345 352 357 4 3 358 355 353 352 350 345 344 343 340 337 340 341 336 331 330 319 306 304 302 307 315 312 310 311 316 321 326 329 330 331 332 335
321 328 332 340 352 356 350 351 354 352 347 346 353 353 351 346 348 357 8 9 5 4 360 353 349 346 340 334 341 340 333 335 339 353 351 342 336 331 322 314 309 306 306 311 315 318 319 324 328 331 333 336 336 334
332 337 342 346 347 349 349 348 347 346 352 358 360 351 351 352 354 8 13 11 10 2 355 353 347 336 329 328 328 330 334 338 335 331 331 333 335 331 326 323 317 310 314 316 317 333 335 336 338 340 337 336 339 340
335 353 352 344 345 344 345 346 347 352 1 358 352 350 358 6 9 10 14 21 27 20 11 6 356 337 333 327 324 321 322 330 332 319 310 316 324 323 326 329 326 324 324 325 330 339 340 341 344 345 345 345 345 346
339 346 341 340 339 339 345 352 350 358 359 359 359 357 354 352 355 13 10 22 38 49 56 59 44 5 341 328 325 328 326 327 323 319 318 318 327 332 334 336 337 335 335 337 338 338 340 341 342 342 342 341 342 342
345 344 341 341 340 344 350 354 354 355 353 352 345 344 341 332 341 354 3 14 31 38 44 54 74 79 53 9 344 334 330 325 332 334 334 336 337 337 338 340 342 343 345 345 342 341 339 338 336 336 336 336 336 336
337 337 337 335 340 348 351 349 349 347 345 343 339 331 327 332 339 344 352 6 22 25 25 36 44 41 60 78 51 353 332 330 324 323 326 333 334 336 339 339 340 341 342 343 342 341 337 336 335 335 334 333 333 332
335 337 340 343 344 345 347 348 345 344 343 341 336 328 327 331 337 340 355 14 20 21 24 26 30 34 29 46 28 22 18 336 313 309 335 343 339 339 339 336 336 335 333 333 332 332 331 331 331 331 331 331 330 330